Flag Weather past 2 weeks in Kashgar, Xinjiang, China

Now
27 °F

Clear.


Feels Like: 27 °F
Forecast: 29 / 39 °F
Wind: 1 mph from North

Location: Kashi Airport

Current Time: Nov 28, 2014 at 11:03:23 AM

Latest Report: Nov 28, 2014 at 10:00 AM


Visibility: 6 mi

Pressure: 29.86 "Hg

Humidity: 80%

Dew point: 21 °F

Location of KashgarLocation

Historic Weather in Kashgar — Graph

°F

Kashgar temperature yesterday

Maximum temperature yesterday: 39 °F (at 5:00 PM)
Minimum temperature yesterday: 28 °F (at 9:00 AM)
Average temperature yesterday: 33 °F

Past Weeks' High & Low Weather Summary

 TemperatureHumidityPressure
High54 °F (Nov 25, 7:00 PM)86% (Nov 28, 8:00 AM)30.42 "Hg (Nov 28, 8:00 AM)
Low25 °F (Nov 28, 8:00 AM)8% (Nov 26, 8:00 AM)29.77 "Hg (Nov 25, 5:00 PM)
Average39 °F47%30.16 "Hg
* Reported Nov 13 9:00 AM — Nov 28 9:00 AM, Kashgar, Weather by CustomWeather, © 2014

Note: Actual official high and low records may vary slightly from our data, if they occured in-between our weather recording intervals... More about our weather records

Advertising

Kashgar weather history for previous 24 hours

 ConditionsComfort  
Time TempWeatherWind HumidityBarometerVisibility
9:00 AM
Nov 28
25 °FClear.No wind80%29.86 "Hg5 mi
8:00 AM25 °FClear.3 mph86%29.83 "Hg4 mi
7:00 AM27 °FClear.3 mph80%29.83 "Hg4 mi
6:00 AM27 °FClear.6 mph80%29.86 "Hg4 mi
5:00 AM27 °FClear.8 mph80%29.86 "Hg4 mi
4:00 AM28 °FChilly.6 mph74%29.89 "HgN/A
3:00 AM28 °FChilly.3 mph80%29.89 "HgN/A
2:00 AM30 °FChilly.6 mph75%29.89 "HgN/A
1:00 AM30 °FChilly.8 mph75%29.92 "HgN/A
12:00 AM30 °FChilly.8 mph75%29.92 "HgN/A
11:00 PM
Nov 27
32 °FPassing clouds.3 mph69%29.92 "HgN/A
10:00 PM34 °FPassing clouds.1 mph70%29.92 "HgN/A
9:00 PM34 °FPassing clouds.3 mph70%29.92 "Hg5 mi
8:00 PM36 °FPassing clouds.3 mph65%29.89 "Hg5 mi
7:00 PM37 °FPassing clouds.1 mph56%29.92 "Hg5 mi
6:00 PM37 °FPassing clouds.3 mph56%29.92 "Hg5 mi
5:00 PM39 °FPassing clouds.6 mph52%29.92 "Hg5 mi
4:00 PM36 °FPassing clouds.1 mph65%29.95 "Hg4 mi
3:00 PM36 °FClear.3 mph65%29.98 "Hg4 mi
2:00 PM34 °FClear.6 mph70%30.01 "Hg4 mi
1:00 PM32 °FClear.6 mph75%30.04 "Hg4 mi
12:00 PM30 °FClear.6 mph80%30.07 "Hg5 mi
11:00 AM28 °FClear.3 mph80%30.07 "Hg5 mi
Weather by CustomWeather, © 2014

See weather overviewHow to use our weather pages